[[{"header":{"parameterUnit":"m.s-1","parameterCategory":1,"la1":30.2991,"la2":30.254,"lo1":-89.0895,"lo2":-89.0444,"dy":0.0017,"dx":0.0017,"nx":28,"ny":28,"refTime":"2023-09-23T21:00:00:Z","depth":0,"parameterNumber":2,"parameterNumberName":"U-component_of_WINDS"},"data":[0,0,0,0,0,0,0,0,0,0,0,0,0,0,0,0,0,0,0,0,0,0,0,0,0,0,0,0,0,0,0,0,0,0,0,0,0,0,0,0,0,0,0,0,0,0,0,0,0,0,0,0,0,0,0,0,0,0,0.6471,0.647,0,0.6427,0.6427,0.6426,0.6427,0.6427,0.6428,0.6428,0.6381,0.6379,0.6378,0,0,0,0,0,0,0,0,0,0,0,0,0,0.6553,0.6551,0.6471,0.647,0.647,0.6427,0.6427,0.6426,0.6427,0.6427,0.6428,0.6429,0.6382,0.638,0.6377,0,0,0,0,0,0,0,0,0,0,0,0,0,0.6514,0.6551,0.6471,0.6465,0.6464,0.6427,0.6426,0.6426,0.6426,0.6427,0.6428,0.6429,0.6382,0.638,0.6377,0.6343,0,0,0.6369,0.6368,0,0,0,0,0,0,0,0,0.6516,0.6511,0.6466,0.6465,0.6464,0.6433,0.6438,0.6398,0.6426,0.6441,0.6428,0.643,0.6398,0.6394,0.6383,0.634,0.6338,0.6369,0.6367,0.6366,0.6365,0,0,0,0,0,0,0,0.6519,0.6513,0.6453,0.6466,0.6464,0.6464,0.6459,0.643,0.6414,0.6439,0.6439,0.6434,0.6397,0.6386,0.6382,0.6338,0.6369,0.6366,0.6364,0.6363,0.6264,0.6263,0,0,0,0,0,0,0.6523,0.6515,0.6455,0.6452,0.6493,0.6462,0.6457,0.6442,0.6415,0.6412,0.6434,0.6435,0.639,0.6385,0.6381,0.6338,0.6366,0.6363,0.6362,0.6265,0.6264,0.6263,0,0,0,0,0,0,0.6525,0.6517,0.6456,0.6483,0.6476,0.6459,0.6443,0.6441,0.643,0.6411,0.6407,0.6425,0.6391,0.6384,0.6352,0.6336,0.6362,0.6359,0.6266,0.6265,0.6263,0.6253,0,0,0,0,0,0,0.6527,0.6518,0.6505,0.6483,0.6474,0.6429,0.6442,0.6439,0.6425,0.6426,0.6402,0.6399,0.6391,0.6356,0.635,0.6333,0.6357,0.6268,0.6266,0.6264,0.6255,0.6251,0.6248,0,0,0,0,0,0.653,0.6503,0.6504,0.6497,0.6458,0.6428,0.6423,0.6415,0.6424,0.6411,0.6399,0.64,0.634,0.6353,0.6345,0.6328,0.6268,0.6266,0.6264,0.6256,0.6252,0.6248,0,0,0,0,0,0,0.6522,0.65,0.6501,0.6467,0.645,0.6428,0.6411,0.6411,0.639,0.6392,0.6383,0.6377,0.6345,0.6333,0.6349,0.6293,0.6305,0.6301,0.6302,0.6298,0.6295,0.6297,0.6355,0,0,0,0,0,0.6517,0.6496,0.6477,0.6449,0.644,0.6427,0.6414,0.641,0.6391,0.6384,0.6369,0.635,0.6327,0.6312,0.629,0.6254,0.6248,0.6238,0.6235,0.6233,0.6229,0.6208,0.6204,0.6255,0.6255,0.6255,0,0,0.6505,0.649,0.6477,0.6447,0.6433,0.641,0.6421,0.6397,0.6379,0.638,0.6348,0.6337,0.6316,0.6281,0.6265,0.6271,0.6214,0.623,0.6228,0.6225,0.6206,0.6201,0.6196,0.6254,0.6254,0.6254,0,0,0.6472,0.6459,0.6434,0.642,0.6399,0.6391,0.6385,0.6364,0.6357,0.6326,0.6326,0.6305,0.6266,0.6251,0.6238,0.62,0.62,0.6193,0.6176,0.6157,0.6153,0.6149,0.6135,0.613,0.619,0.619,0.619,0,0.6459,0.6426,0.642,0.6396,0.6382,0.6383,0.6357,0.6344,0.6317,0.6307,0.6314,0.6265,0.6251,0.6213,0.6204,0.6194,0.6186,0.6195,0.6154,0.615,0.6147,0.6133,0.6128,0.6189,0.6189,0.6189,0.6189,0,0.6411,0.6388,0.637,0.6345,0.633,0.6305,0.6295,0.628,0.6278,0.6269,0.6237,0.622,0.6194,0.6186,0.6183,0.6147,0.6151,0.6156,0.6167,0.6141,0.6128,0.6123,0.6188,0.6188,0.6188,0.6189,0,0,0.6369,0.6343,0.6336,0.6325,0.6303,0.6285,0.6261,0.6237,0.6224,0.6205,0.6184,0.6151,0.6156,0.6141,0.6137,0.612,0.6091,0.6127,0.6126,0.612,0.605,0.6045,0.6039,0.6091,0.609,0.609,0.6051,0,0.6333,0.6289,0.6285,0.6246,0.6224,0.6226,0.6204,0.6188,0.6179,0.6159,0.615,0.6126,0.6135,0.6126,0.611,0.6098,0.6076,0.6101,0.607,0.6069,0.6074,0.6032,0.6027,0.5992,0.6046,0.6045,0.6045,0,0.6284,0.6265,0.6225,0.6206,0.6197,0.6178,0.6156,0.6137,0.6119,0.6114,0.6099,0.6097,0.607,0.6085,0.6048,0.6065,0.6052,0.6045,0.6043,0.6038,0.6054,0.6026,0.598,0.5974,0.6037,0.6037,0.6038,0,0.6256,0.6222,0.6193,0.6183,0.6162,0.6148,0.6138,0.6121,0.6107,0.6088,0.6079,0.6057,0.6044,0.6026,0.6018,0.6029,0.5982,0.5995,0.5976,0.5976,0.5964,0.5965,0.5915,0.5959,0.5959,0.5959,0.5959,0,0.6215,0.619,0.618,0.6162,0.6134,0.6129,0.6101,0.6092,0.6077,0.6056,0.6057,0.6037,0.6029,0.6008,0.6002,0.5972,0.5966,0.5961,0.5959,0.596,0.596,0.595,0.5952,0.5957,0.5958,0.5958,0.5958,0,0.6179,0.6172,0.614,0.6123,0.6118,0.6098,0.6083,0.6065,0.6058,0.6032,0.6026,0.6013,0.5989,0.598,0.595,0.5946,0.5911,0.5912,0.5918,0.5917,0.5897,0.5899,0.5838,0.5829,0.588,0.588,0.5879,0,0.6152,0.6133,0.6114,0.6102,0.6092,0.6071,0.6057,0.6052,0.6037,0.6016,0.6001,0.5977,0.5957,0.5919,0.5906,0.5884,0.5883,0.5864,0.588,0.5881,0.5881,0.5882,0.588,0.586,0.586,0.5859,0.5859,0,0.6106,0.6103,0.6084,0.6064,0.6048,0.6031,0.6015,0.6005,0.5997,0.598,0.5956,0.5942,0.5912,0.5888,0.5865,0.5854,0.5854,0.5854,0.5848,0.5848,0.5851,0.5848,0.5908,0.5855,0.5855,0.5856,0.5856,0.5856,0.6072,0.6056,0.604,0.6019,0.6007,0.5992,0.5975,0.5966,0.5946,0.5922,0.592,0.5894,0.5877,0.5846,0.5834,0.5813,0.5818,0.581,0.5808,0.5805,0.5803,0.5856,0.5809,0.5809,0.5809,0.5809,0.581,0,0.6025,0.6015,0.5996,0.5974,0.5957,0.5962,0.5944,0.593,0.5907,0.5892,0.5873,0.5845,0.5823,0.5809,0.5786,0.5772,0.5772,0.5766,0.5766,0.5763,0.5801,0.5807,0.5767,0.5767,0.5767,0.5767,0.5767,0.5767,0.5998,0.5969,0.5966,0.5931,0.5921,0.5897,0.5886,0.5873,0.586,0.583,0.5811,0.5804,0.5789,0.5765,0.5744,0.5741,0.5732,0.5725,0.5722,0.5757,0.5761,0.5765,0.5771,0.5724,0.5724,0.5687,0.5686,0.5686]},{"header":{"parameterUnit":"m.s-1","parameterCategory":1,"la1":30.2991,"la2":30.254,"lo1":-89.0895,"lo2":-89.0444,"dy":0.0017,"dx":0.0017,"nx":28,"ny":28,"refTime":"2023-09-23T21:00:00:Z","depth":0,"parameterNumber":3,"parameterNumberName":"V-component_of_WINDS"},"data":[0,0,0,0,0,0,0,0,0,0,0,0,0,0,0,0,0,0,0,0,0,0,0,0,0,0,0,0,0,0,0,0,0,0,0,0,0,0,0,0,0,0,0,0,0,0,0,0,0,0,0,0,0,0,0,0,0,0,-1.2727,-1.2727,0,-1.2725,-1.2725,-1.2725,-1.2711,-1.2711,-1.271,-1.271,-1.2707,-1.2707,-1.2708,0,0,0,0,0,0,0,0,0,0,0,0,0,-1.2719,-1.2719,-1.2727,-1.2727,-1.2727,-1.2725,-1.2725,-1.2725,-1.2711,-1.2711,-1.271,-1.271,-1.2707,-1.2707,-1.2708,0,0,0,0,0,0,0,0,0,0,0,0,0,-1.272,-1.2719,-1.2727,-1.272,-1.2719,-1.2725,-1.2725,-1.2725,-1.2711,-1.2711,-1.271,-1.271,-1.2707,-1.2707,-1.2708,-1.2721,0,0,-1.2709,-1.2709,0,0,0,0,0,0,0,0,-1.272,-1.272,-1.2721,-1.272,-1.272,-1.2718,-1.2721,-1.2724,-1.2711,-1.2714,-1.271,-1.2709,-1.2711,-1.2711,-1.2712,-1.272,-1.272,-1.2709,-1.2709,-1.2709,-1.2709,0,0,0,0,0,0,0,-1.272,-1.272,-1.2726,-1.2721,-1.272,-1.2717,-1.2716,-1.2722,-1.2716,-1.2714,-1.2713,-1.2713,-1.2711,-1.2712,-1.2712,-1.272,-1.2709,-1.2709,-1.271,-1.271,-1.2741,-1.2741,0,0,0,0,0,0,-1.2721,-1.272,-1.2726,-1.2726,-1.2719,-1.2717,-1.2717,-1.2719,-1.2715,-1.2714,-1.2713,-1.2712,-1.2711,-1.2711,-1.2712,-1.2727,-1.2709,-1.271,-1.271,-1.274,-1.2741,-1.2741,0,0,0,0,0,0,-1.2721,-1.2722,-1.2727,-1.2723,-1.2724,-1.2718,-1.272,-1.2719,-1.272,-1.2715,-1.2714,-1.2715,-1.2711,-1.2711,-1.2719,-1.2727,-1.271,-1.271,-1.2739,-1.274,-1.2741,-1.2758,0,0,0,0,0,0,-1.2721,-1.2722,-1.2726,-1.2723,-1.2724,-1.2734,-1.2721,-1.272,-1.2721,-1.2719,-1.2717,-1.2716,-1.271,-1.2718,-1.2719,-1.2727,-1.2711,-1.2739,-1.274,-1.2741,-1.2757,-1.2759,-1.2762,0,0,0,0,0,-1.272,-1.2731,-1.2727,-1.2727,-1.273,-1.2734,-1.2734,-1.2728,-1.2722,-1.2726,-1.2723,-1.2716,-1.2726,-1.2719,-1.272,-1.2728,-1.2738,-1.2739,-1.2741,-1.2756,-1.2759,-1.2762,0,0,0,0,0,0,-1.2734,-1.273,-1.2726,-1.2735,-1.2735,-1.2732,-1.2738,-1.2732,-1.2734,-1.2732,-1.2724,-1.2724,-1.2733,-1.2731,-1.2724,-1.2741,-1.2731,-1.2732,-1.2742,-1.2745,-1.2747,-1.2747,-1.2711,0,0,0,0,0,-1.2739,-1.2743,-1.2739,-1.2748,-1.2748,-1.2743,-1.2745,-1.274,-1.274,-1.274,-1.2737,-1.2737,-1.274,-1.2742,-1.2745,-1.2756,-1.2756,-1.2762,-1.2765,-1.2767,-1.2768,-1.2775,-1.2778,-1.2746,-1.2746,-1.2746,0,0,-1.2747,-1.2746,-1.2749,-1.2751,-1.275,-1.2755,-1.2743,-1.2748,-1.2752,-1.274,-1.2748,-1.2746,-1.2745,-1.2755,-1.276,-1.2754,-1.2778,-1.2769,-1.277,-1.2771,-1.2777,-1.278,-1.2783,-1.2747,-1.2746,-1.2746,0,0,-1.2766,-1.2765,-1.2773,-1.2773,-1.2772,-1.2769,-1.2771,-1.2768,-1.2767,-1.2774,-1.2766,-1.277,-1.2776,-1.2776,-1.2777,-1.2797,-1.279,-1.2798,-1.2811,-1.2817,-1.282,-1.2822,-1.283,-1.2833,-1.2799,-1.2799,-1.2799,0,-1.2777,-1.2783,-1.2777,-1.2783,-1.2785,-1.2775,-1.2784,-1.2784,-1.2784,-1.2785,-1.278,-1.2787,-1.2786,-1.2796,-1.2801,-1.2802,-1.2804,-1.2798,-1.282,-1.2822,-1.2824,-1.2832,-1.2835,-1.28,-1.28,-1.28,-1.28,0,-1.2797,-1.2802,-1.2809,-1.281,-1.2812,-1.2819,-1.2814,-1.2817,-1.2813,-1.281,-1.2819,-1.2817,-1.282,-1.2822,-1.2817,-1.2832,-1.2829,-1.2822,-1.2811,-1.2829,-1.2835,-1.2838,-1.2802,-1.2801,-1.2801,-1.2801,0,0,-1.2824,-1.2822,-1.2825,-1.2826,-1.2825,-1.2829,-1.2836,-1.2839,-1.2842,-1.2843,-1.2849,-1.2854,-1.2848,-1.2849,-1.2845,-1.2851,-1.2868,-1.2843,-1.2843,-1.2848,-1.2885,-1.289,-1.2893,-1.2863,-1.2864,-1.2864,-1.2885,0,-1.2842,-1.2854,-1.2849,-1.2862,-1.2867,-1.2858,-1.2864,-1.2865,-1.2863,-1.2867,-1.2865,-1.2869,-1.286,-1.2861,-1.2867,-1.2864,-1.2875,-1.2863,-1.2869,-1.2869,-1.287,-1.2897,-1.2902,-1.2922,-1.2887,-1.2888,-1.2888,0,-1.2865,-1.2867,-1.2881,-1.288,-1.2882,-1.2888,-1.2891,-1.2894,-1.2895,-1.2893,-1.2895,-1.2889,-1.2897,-1.2886,-1.2897,-1.2888,-1.2891,-1.289,-1.2891,-1.2891,-1.288,-1.2898,-1.2928,-1.2931,-1.2892,-1.2892,-1.2891,0,-1.2884,-1.289,-1.2899,-1.29,-1.29,-1.2904,-1.2904,-1.2904,-1.2907,-1.2909,-1.2911,-1.2914,-1.2916,-1.2919,-1.2914,-1.2907,-1.2925,-1.2914,-1.2924,-1.2925,-1.2929,-1.2928,-1.2959,-1.293,-1.293,-1.293,-1.2929,0,-1.2905,-1.2913,-1.2908,-1.2913,-1.2923,-1.2918,-1.2927,-1.2926,-1.2927,-1.2932,-1.2925,-1.293,-1.2924,-1.2929,-1.2925,-1.2935,-1.2936,-1.2935,-1.2934,-1.2935,-1.2936,-1.2937,-1.2936,-1.293,-1.293,-1.293,-1.293,0,-1.2927,-1.2924,-1.2933,-1.2933,-1.2933,-1.294,-1.2939,-1.2944,-1.2942,-1.2949,-1.2951,-1.2947,-1.2953,-1.2949,-1.2954,-1.2952,-1.2964,-1.2961,-1.2964,-1.2963,-1.2974,-1.2973,-1.3007,-1.3011,-1.2978,-1.2979,-1.2979,0,-1.2941,-1.2948,-1.2948,-1.2951,-1.2952,-1.2957,-1.296,-1.2955,-1.2958,-1.296,-1.2965,-1.297,-1.2974,-1.2983,-1.2981,-1.2985,-1.2982,-1.2994,-1.2983,-1.2985,-1.2983,-1.2983,-1.2984,-1.2996,-1.2997,-1.2997,-1.2997,0,-1.2966,-1.2964,-1.2969,-1.2973,-1.2977,-1.298,-1.2982,-1.2985,-1.298,-1.2984,-1.299,-1.2993,-1.2999,-1.3004,-1.3008,-1.3008,-1.3002,-1.3001,-1.3003,-1.3005,-1.3007,-1.3007,-1.2971,-1.3,-1.3,-1.2999,-1.2999,-1.2999,-1.2985,-1.2991,-1.2992,-1.2998,-1.2999,-1.3002,-1.3007,-1.3006,-1.3011,-1.3015,-1.3012,-1.3019,-1.302,-1.3025,-1.3026,-1.3031,-1.3027,-1.303,-1.3031,-1.3032,-1.3034,-1.3006,-1.3032,-1.3032,-1.3032,-1.3032,-1.3032,0,-1.301,-1.3011,-1.3016,-1.302,-1.3024,-1.3019,-1.3022,-1.3026,-1.3032,-1.3034,-1.3038,-1.3045,-1.305,-1.3049,-1.3054,-1.3059,-1.3056,-1.306,-1.306,-1.306,-1.3038,-1.3035,-1.3062,-1.3062,-1.3062,-1.3062,-1.3062,-1.3062,-1.3024,-1.3034,-1.3033,-1.3043,-1.3044,-1.3051,-1.3053,-1.3056,-1.3057,-1.3066,-1.307,-1.307,-1.3071,-1.3076,-1.308,-1.308,-1.3082,-1.3087,-1.3086,-1.3065,-1.3062,-1.3059,-1.3057,-1.3088,-1.3088,-1.3108,-1.3108,-1.3109]}]]